GW7169 Weather Reports


Display with metric or nautical units.
time (UTC)temp
F
wind
direction
speed
MPH
gust
MPH
rain 1hr
in
rain 24hr
in
rain mn
in
humidity
%
barometer
mb
20260906122557 92 298 4.0 6.0 0.00 0.00 0.00 24 1012.5
20260906122058 91 318 6.0 9.0 0.00 0.00 0.00 25 1012.5
20260906121557 92 118 3.0 3.0 0.00 0.00 0.00 25 1012.5
20260906121057 92 230 1.0 2.0 0.00 0.00 0.00 25 1012.9
20260906120557 91 338 1.0 1.0 0.00 0.00 0.00 25 1012.5
20260906120057 91 265 2.0 2.0 0.00 0.00 0.00 25 1012.5
20260906115557 91 95 3.0 3.0 0.00 0.00 0.00 25 1012.9
20260906115057 92 224 4.0 5.0 0.00 0.00 0.00 24 1012.9
20260906114557 92 105 3.0 5.0 0.00 0.00 0.00 24 1012.9
20260906114057 92 293 4.0 6.0 0.00 0.00 0.00 23 1012.9
20260906113557 93 299 7.0 11.0 0.00 0.00 0.00 24 1012.9
20260906113057 91 267 3.0 5.0 0.00 0.00 0.00 24 1012.9
20260906112557 91 324 3.0 3.0 0.00 0.00 0.00 24 1012.9
20260906112058 91 211 7.0 11.0 0.00 0.00 0.00 24 1012.9
20260906111557 91 275 6.0 7.0 0.00 0.00 0.00 24 1013.2
20260906111057 92 237 2.0 2.0 0.00 0.00 0.00 24 1012.9
20260906110558 91 263 3.0 3.0 0.00 0.00 0.00 24 1012.9
20260906110057 91 269 2.0 2.0 0.00 0.00 0.00 24 1012.9
20260906105557 91 273 2.0 2.0 0.00 0.00 0.00 24 1012.9
20260906105058 91 29 1.0 2.0 0.00 0.00 0.00 24 1012.9
20260906104557 90 319 2.0 3.0 0.00 0.00 0.00 24 1013.2
20260906104057 90 206 6.0 8.0 0.00 0.00 0.00 24 1013.2
20260906103557 90 308 3.0 5.0 0.00 0.00 0.00 25 1013.2
20260906103057 90 222 9.0 11.0 0.00 0.00 0.00 25 1012.9
20260906102557 90 249 2.0 3.0 0.00 0.00 0.00 25 1013.2
20260906102057 90 32 2.0 3.0 0.00 0.00 0.00 25 1013.2
20260906101557 89 296 5.0 6.0 0.00 0.00 0.00 25 1013.2
20260906101057 89 262 3.0 3.0 0.00 0.00 0.00 26 1013.2
20260906100558 89 3 3.0 3.0 0.00 0.00 0.00 26 1013.2
20260906100057 89 334 3.0 3.0 0.00 0.00 0.00 26 1013.2
20260906095557 89 139 5.0 7.0 0.00 0.00 0.00 26 1013.2
20260906095057 89 299 7.0 10.0 0.00 0.00 0.00 26 1013.5
20260906094557 89 182 7.0 10.0 0.00 0.00 0.00 26 1013.5
20260906094057 89 326 3.0 3.0 0.00 0.00 0.00 26 1013.5
20260906093556 89 237 3.0 3.0 0.00 0.00 0.00 25 1013.5
20260906093057 89 211 1.0 1.0 0.00 0.00 0.00 25 1013.5
20260906092558 89 133 2.0 2.0 0.00 0.00 0.00 24 1013.5
20260906092057 89 235 6.0 9.0 0.00 0.00 0.00 25 1013.5
20260906091557 88 327 3.0 6.0 0.00 0.00 0.00 26 1013.5
20260906091057 88 322 6.0 9.0 0.00 0.00 0.00 26 1013.9
20260906090557 87 225 5.0 6.0 0.00 0.00 0.00 27 1013.5
20260906090058 87 323 5.0 6.0 0.00 0.00 0.00 27 1013.9
20260906085558 87 269 1.0 3.0 0.00 0.00 0.00 27 1013.5
20260906085059 87 233 3.0 5.0 0.00 0.00 0.00 27 1013.9
20260906084558 87 327 3.0 5.0 0.00 0.00 0.00 27 1013.9
20260906084058 87 274 3.0 5.0 0.00 0.00 0.00 27 1013.9
20260906083557 87 233 3.0 5.0 0.00 0.00 0.00 28 1013.9
20260906083057 87 253 5.0 6.0 0.00 0.00 0.00 28 1014.2
20260906082558 87 238 5.0 7.0 0.00 0.00 0.00 27 1014.2
20260906082057 86 296 7.0 11.0 0.00 0.00 0.00 27 1014.2
20260906081557 86 305 3.0 6.0 0.00 0.00 0.00 28 1013.9
20260906081057 87 260 7.0 9.0 0.00 0.00 0.00 28 1014.2
20260906080557 86 183 4.0 5.0 0.00 0.00 0.00 29 1014.2
20260906080058 86 236 2.0 3.0 0.00 0.00 0.00 27 1014.2
20260906075557 86 254 2.0 3.0 0.00 0.00 0.00 31 1014.2
20260906075057 85 253 0.0 0.0 0.00 0.00 0.00 37 1014.2
20260906074556 84 208 1.0 1.0 0.00 0.00 0.00 42 1014.2
20260906074057 83 226 2.0 2.0 0.00 0.00 0.00 45 1014.2
20260906073557 83 303 1.0 1.0 0.00 0.00 0.00 45 1014.2
20260906073057 82 301 1.0 1.0 0.00 0.00 0.00 46 1014.2
20260906072557 82 344 1.0 0.0 0.00 0.00 0.00 47 1014.2
20260906072057 82 253 1.0 0.0 0.00 0.00 0.00 46 1014.6
20260906071558 82 238 1.0 1.0 0.00 0.00 0.00 46 1014.6
20260906071057 82 261 1.0 1.0 0.00 0.00 0.00 47 1014.6
20260906070628 81 294 0.0 0.0 0.00 0.00 0.00 46 1014.6
20260906070057 81 225 1.0 1.0 0.00 0.00 0.00 47 1014.6
20260906065557 81 339 1.0 1.0 0.00 0.00 0.00 48 1014.6
20260906065057 81 304 0.0 0.0 0.00 0.00 0.00 48 1014.6
20260906064557 80 281 0.0 0.0 0.00 0.00 0.00 47 1014.9
20260906064057 80 101 1.0 0.0 0.00 0.00 0.00 46 1014.9
20260906063557 80 137 1.0 1.0 0.00 0.00 0.00 48 1014.9
20260906063057 80 290 0.0 0.0 0.00 0.00 0.00 49 1014.6
20260906062557 80 288 1.0 2.0 0.00 0.00 0.00 48 1014.9
20260906062057 80 254 1.0 2.0 0.00 0.00 0.00 47 1014.6
20260906061558 79 225 0.0 0.0 0.00 0.00 0.00 47 1014.6
20260906061058 79 352 1.0 1.0 0.00 0.00 0.00 47 1014.9
20260906060557 78 256 0.0 0.0 0.00 0.00 0.00 48 1014.6
20260906060057 78 181 1.0 1.0 0.00 0.00 0.00 48 1014.6
20260906055557 78 231 1.0 1.0 0.00 0.00 0.00 49 1014.6
20260906055057 77 264 1.0 1.0 0.00 0.00 0.00 51 1014.9
20260906054557 77 208 0.0 0.0 0.00 0.00 0.00 54 1014.6
20260906054058 77 76 1.0 0.0 0.00 0.00 0.00 55 1014.6
20260906053557 77 78 1.0 0.0 0.00 0.00 0.00 55 1014.9
20260906053057 76 114 0.0 0.0 0.00 0.00 0.00 56 1014.6
20260906052557 75 204 1.0 1.0 0.00 0.00 0.00 57 1014.9
20260906052057 75 42 1.0 0.0 0.00 0.00 0.00 58 1014.6
20260906051557 75 349 1.0 1.0 0.00 0.00 0.00 58 1014.9
20260906051057 75 60 0.0 0.0 0.00 0.00 0.00 58 1014.6
20260906050557 74 25 0.0 0.0 0.00 0.00 0.00 60 1014.6
20260906050057 73 62 0.0 0.0 0.00 0.00 0.00 62 1014.9
20260906045557 73 45 1.0 1.0 0.00 0.00 0.00 62 1014.6
20260906045057 74 97 0.0 0.0 0.00 0.00 0.00 61 1014.9
20260906044557 74 173 0.0 0.0 0.00 0.00 0.00 62 1014.9
20260906044057 73 165 0.0 0.0 0.00 0.00 0.00 64 1014.6
20260906043557 72 253 0.0 0.0 0.00 0.00 0.00 65 1014.6
20260906043058 72 3 0.0 0.0 0.00 0.00 0.00 64 1014.6
20260906042557 72 48 1.0 1.0 0.00 0.00 0.00 65 1014.6
20260906042057 71 58 0.0 0.0 0.00 0.00 0.00 66 1014.6
20260906041557 71 58 0.0 0.0 0.00 0.00 0.00 66 1014.6
20260906041057 71 47 1.0 1.0 0.00 0.00 0.00 68 1014.6
20260906040557 71 47 1.0 1.0 0.00 0.00 0.00 68 1014.6
20260906040104 70 49 1.0 1.0 0.00 0.00 0.00 68 1014.2
20260906035558 70 49 1.0 1.0 0.00 0.00 0.00 68 1014.2
20260906035057 70 49 1.0 1.0 0.00 0.00 0.00 68 1014.2
20260906034557 70 279 1.0 1.0 0.00 0.00 0.00 67 1014.2
20260906034057 70 49 0.0 1.0 0.00 0.00 0.00 67 1014.2
20260906033557 70 50 1.0 1.0 0.00 0.00 0.00 67 1014.2
20260906033058 70 45 1.0 1.0 0.00 0.00 0.00 67 1014.2
20260906032557 70 85 1.0 1.0 0.00 0.00 0.00 65 1014.2
20260906032057 71 307 1.0 2.0 0.00 0.00 0.00 61 1013.9
20260906031558 74 67 1.0 1.0 0.00 0.00 0.00 53 1013.9
20260906031057 76 276 0.0 0.0 0.00 0.00 0.00 35 1013.9
20260906030558 76 176 2.0 2.0 0.00 0.00 0.00 33 1013.5
20260906030057 76 116 1.0 1.0 0.00 0.00 0.00 33 1013.9
20260906025557 76 299 1.0 1.0 0.00 0.00 0.00 34 1013.9
20260906025057 76 141 6.0 7.0 0.00 0.00 0.00 33 1013.9
20260906024557 76 242 5.0 6.0 0.00 0.00 0.00 33 1013.5
20260906024057 76 242 5.0 6.0 0.00 0.00 0.00 33 1013.5
20260906023557 76 242 2.0 3.0 0.00 0.00 0.00 33 1013.9
20260906023057 76 254 5.0 6.0 0.00 0.00 0.00 33 1013.9
20260906022558 76 296 3.0 5.0 0.00 0.00 0.00 33 1013.5
20260906022057 76 3 3.0 3.0 0.00 0.00 0.00 34 1013.5
20260906021558 76 271 2.0 2.0 0.00 0.00 0.00 34 1013.5
20260906021057 76 253 2.0 2.0 0.00 0.00 0.00 34 1013.5
20260906020557 76 343 1.0 2.0 0.00 0.00 0.00 34 1013.5
20260906020057 77 273 3.0 6.0 0.00 0.00 0.00 34 1013.5
20260906015557 76 252 2.0 2.0 0.00 0.00 0.00 34 1013.2
20260906015057 76 300 1.0 1.0 0.00 0.00 0.00 34 1013.5
20260906014557 76 267 1.0 1.0 0.00 0.00 0.00 35 1013.5
20260906014058 76 262 3.0 5.0 0.00 0.00 0.00 35 1013.2
20260906013557 77 268 4.0 5.0 0.00 0.00 0.00 35 1013.5
20260906013057 76 55 2.0 5.0 0.00 0.00 0.00 35 1013.5
20260906012557 76 319 3.0 3.0 0.00 0.00 0.00 36 1013.2
20260906012057 76 319 3.0 3.0 0.00 0.00 0.00 36 1013.2
20260906011557 76 241 2.0 2.0 0.00 0.00 0.00 37 1013.2
20260906011057 76 330 2.0 2.0 0.00 0.00 0.00 37 1013.2
20260906010557 76 185 3.0 3.0 0.00 0.00 0.00 38 1013.2
20260906010057 76 254 1.0 2.0 0.00 0.00 0.00 39 1013.2
20260906005557 76 267 2.0 2.0 0.00 0.00 0.00 38 1013.2
20260906005058 76 216 2.0 3.0 0.00 0.00 0.00 39 1013.2
20260906004558 76 245 3.0 6.0 0.00 0.00 0.00 39 1013.2
20260906004057 76 191 1.0 6.0 0.00 0.00 0.00 39 1013.2
20260906003557 76 199 3.0 5.0 0.00 0.00 0.00 40 1013.5
20260906003058 76 281 2.0 2.0 0.00 0.00 0.00 40 1013.5
20260906002557 76 219 4.0 5.0 0.00 0.00 0.00 40 1013.5
20260906002057 76 219 4.0 5.0 0.00 0.00 0.00 40 1013.5
20260906001557 76 147 2.0 3.0 0.00 0.00 0.00 40 1013.5
20260906001057 76 244 2.0 3.0 0.00 0.00 0.00 41 1013.5
20260906000556 77 226 2.0 2.0 0.00 0.00 0.00 40 1013.2
20260906000057 77 292 4.0 6.0 0.00 0.00 0.00 41 1013.5
20260905235557 77 231 2.0 3.0 0.00 0.00 0.00 41 1013.2
20260905235057 77 287 2.0 3.0 0.00 0.00 0.00 43 1013.2
20260905234557 77 287 2.0 3.0 0.00 0.00 0.00 43 1013.2
20260905234057 77 287 2.0 3.0 0.00 0.00 0.00 43 1013.5
20260905233557 77 287 2.0 3.0 0.00 0.00 0.00 43 1013.5
20260905233057 77 234 3.0 6.0 0.00 0.00 0.00 43 1013.5
20260905232556 77 63 2.0 3.0 0.00 0.00 0.00 44 1013.5
20260905232057 77 245 2.0 2.0 0.00 0.00 0.00 44 1013.2
20260905231557 77 246 1.0 2.0 0.00 0.00 0.00 45 1013.5
20260905231057 76 283 2.0 3.0 0.00 0.00 0.00 46 1013.5
20260905230557 75 90 1.0 2.0 0.00 0.00 0.00 48 1013.5
20260905230057 75 36 0.0 0.0 0.00 0.00 0.00 49 1013.5
20260905225557 74 77 1.0 0.0 0.00 0.00 0.00 51 1013.5
20260905225057 74 81 3.0 3.0 0.00 0.00 0.00 52 1013.5
20260905224557 74 58 0.0 0.0 0.00 0.00 0.00 52 1013.9
20260905224057 75 58 0.0 0.0 0.00 0.00 0.00 51 1013.5
20260905223557 75 58 1.0 0.0 0.00 0.00 0.00 50 1013.5
20260905223057 75 90 1.0 1.0 0.00 0.00 0.00 50 1013.5
20260905222557 75 92 1.0 1.0 0.00 0.00 0.00 50 1013.5
20260905222058 75 171 0.0 0.0 0.00 0.00 0.00 49 1013.5
20260905221630 75 172 0.0 0.0 0.00 0.00 0.00 49 1013.5
20260905221057 75 172 1.0 1.0 0.00 0.00 0.00 49 1013.9
20260905220557 76 236 0.0 0.0 0.00 0.00 0.00 48 1014.2
20260905220057 76 236 0.0 0.0 0.00 0.00 0.00 48 1013.9
20260905215557 76 231 1.0 1.0 0.00 0.00 0.00 48 1013.9
20260905215057 76 151 1.0 1.0 0.00 0.00 0.00 48 1013.9
20260905214557 76 151 1.0 1.0 0.00 0.00 0.00 48 1013.9
20260905214057 76 132 1.0 1.0 0.00 0.00 0.00 48 1013.9
20260905213557 76 132 1.0 1.0 0.00 0.00 0.00 48 1013.9
20260905213057 76 128 0.0 0.0 0.00 0.00 0.00 48 1014.2
20260905212558 76 128 1.0 1.0 0.00 0.00 0.00 48 1014.2
20260905212057 76 91 0.0 0.0 0.00 0.00 0.00 48 1014.2
20260905211557 76 79 0.0 0.0 0.00 0.00 0.00 48 1013.9
20260905211057 76 78 0.0 0.0 0.00 0.00 0.00 48 1014.2
20260905210558 76 78 0.0 0.0 0.00 0.00 0.00 48 1014.2
20260905210057 77 78 0.0 0.0 0.00 0.00 0.00 48 1014.2
20260905205557 77 73 0.0 0.0 0.00 0.00 0.00 47 1014.2
20260905205058 77 60 0.0 0.0 0.00 0.00 0.00 47 1014.2
20260905204557 77 59 0.0 0.0 0.00 0.00 0.00 47 1014.2
20260905204057 77 60 0.0 0.0 0.00 0.00 0.00 46 1014.6
20260905203557 77 65 0.0 0.0 0.00 0.00 0.00 47 1014.2
20260905203057 78 65 0.0 0.0 0.00 0.00 0.00 46 1014.2
20260905202558 78 65 0.0 0.0 0.00 0.00 0.00 46 1014.2
20260905202057 78 65 0.0 0.0 0.00 0.00 0.00 46 1014.2
20260905201557 78 65 0.0 0.0 0.00 0.00 0.00 47 1014.2
20260905201057 78 65 0.0 0.0 0.00 0.00 0.00 47 1014.2
20260905200557 78 65 0.0 0.0 0.00 0.00 0.00 46 1014.2
20260905200057 78 65 0.0 0.0 0.00 0.00 0.00 46 1014.2
20260905195559 78 63 0.0 0.0 0.00 0.00 0.00 46 1014.2
20260905195057 78 37 0.0 0.0 0.00 0.00 0.00 45 1014.2
20260905194557 78 82 0.0 0.0 0.00 0.00 0.00 45 1014.2
20260905194057 78 82 0.0 0.0 0.00 0.00 0.00 44 1014.2
20260905193558 79 90 0.0 0.0 0.00 0.00 0.00 43 1014.2
20260905193057 79 87 0.0 0.0 0.00 0.00 0.00 42 1014.2
20260905192557 79 68 0.0 0.0 0.00 0.00 0.00 42 1014.2
20260905192058 79 68 0.0 0.0 0.00 0.00 0.00 41 1014.2
20260905191557 79 64 1.0 0.0 0.00 0.00 0.00 41 1014.6
20260905191057 79 63 0.0 0.0 0.00 0.00 0.00 41 1014.2
20260905190557 80 3 1.0 1.0 0.00 0.00 0.00 41 1014.2
20260905190057 80 208 1.0 1.0 0.00 0.00 0.00 40 1014.2
20260905185558 80 279 1.0 2.0 0.00 0.00 0.00 40 1014.2
20260905185057 80 244 2.0 2.0 0.00 0.00 0.00 40 1014.2
20260905184557 80 48 3.0 3.0 0.00 0.00 0.00 40 1014.2
20260905184057 80 240 1.0 2.0 0.00 0.00 0.00 39 1014.2
20260905183557 80 150 2.0 2.0 0.00 0.00 0.00 39 1014.2
20260905183058 80 83 0.0 0.0 0.00 0.00 0.00 39 1014.2
20260905182557 80 115 1.0 1.0 0.00 0.00 0.00 38 1014.2
20260905182058 80 256 1.0 1.0 0.00 0.00 0.00 38 1014.2
20260905181558 80 257 3.0 5.0 0.00 0.00 0.00 38 1014.2
20260905181057 80 261 2.0 3.0 0.00 0.00 0.00 38 1014.2
20260905180557 80 180 3.0 3.0 0.00 0.00 0.00 38 1014.2
20260905180057 80 57 1.0 1.0 0.00 0.00 0.00 38 1014.2
20260905175557 81 282 3.0 5.0 0.00 0.00 0.00 38 1014.2
20260905175057 81 195 3.0 3.0 0.00 0.00 0.00 38 1014.2
20260905174558 81 159 2.0 2.0 0.00 0.00 0.00 38 1014.2
20260905174057 81 268 3.0 3.0 0.00 0.00 0.00 39 1013.9
20260905173557 81 119 2.0 2.0 0.00 0.00 0.00 40 1013.9
20260905173057 81 214 3.0 3.0 0.00 0.00 0.00 40 1013.9
20260905172557 81 242 2.0 2.0 0.00 0.00 0.00 40 1013.9
20260905172057 81 239 2.0 3.0 0.00 0.00 0.00 40 1013.9
20260905171557 81 249 2.0 2.0 0.00 0.00 0.00 40 1013.9
20260905171058 81 340 2.0 2.0 0.00 0.00 0.00 41 1013.5
20260905170557 82 244 2.0 2.0 0.00 0.00 0.00 41 1013.9
20260905170057 82 72 1.0 0.0 0.00 0.00 0.00 42 1013.5
20260905165557 82 72 1.0 0.0 0.00 0.00 0.00 42 1013.9
20260905165057 81 59 0.0 0.0 0.00 0.00 0.00 43 1013.5
20260905164557 82 56 0.0 0.0 0.00 0.00 0.00 43 1013.5
20260905164057 82 16 0.0 0.0 0.00 0.00 0.00 42 1013.5
20260905163557 82 15 0.0 0.0 0.00 0.00 0.00 42 1013.5
20260905163058 82 14 0.0 0.0 0.00 0.00 0.00 42 1013.5
20260905162557 82 18 0.0 0.0 0.00 0.00 0.00 42 1013.5
20260905162057 82 18 0.0 0.0 0.00 0.00 0.00 41 1013.5
20260905161557 82 127 0.0 0.0 0.00 0.00 0.00 41 1013.5
20260905161057 83 141 0.0 0.0 0.00 0.00 0.00 41 1013.2
20260905160557 83 126 1.0 0.0 0.00 0.00 0.00 41 1013.5
20260905160057 83 99 0.0 0.0 0.00 0.00 0.00 41 1013.2
20260905155557 83 161 2.0 2.0 0.00 0.00 0.00 40 1013.5
20260905155056 84 312 0.0 0.0 0.00 0.00 0.00 40 1013.2
20260905154557 84 312 0.0 0.0 0.00 0.00 0.00 39 1013.2
20260905154058 84 204 1.0 1.0 0.00 0.00 0.00 38 1013.5
20260905153557 85 56 1.0 0.0 0.00 0.00 0.00 37 1013.2
20260905153108 85 217 0.0 0.0 0.00 0.00 0.00 36 1013.5
20260905152559 85 281 1.0 1.0 0.00 0.00 0.00 36 1013.5
20260905152057 85 262 0.0 0.0 0.00 0.00 0.00 36 1013.2
20260905151557 86 187 1.0 1.0 0.00 0.00 0.00 36 1013.2
20260905151057 87 232 1.0 1.0 0.00 0.00 0.00 36 1013.2
20260905150557 87 203 1.0 2.0 0.00 0.00 0.00 34 1013.2
20260905150057 88 321 1.0 1.0 0.00 0.00 0.00 34 1013.2
20260905145557 88 256 1.0 1.0 0.00 0.00 0.00 34 1013.2
20260905145057 88 273 1.0 1.0 0.00 0.00 0.00 33 1013.2
20260905144557 89 226 1.0 0.0 0.00 0.00 0.00 32 1013.2
20260905144058 89 357 1.0 1.0 0.00 0.00 0.00 32 1013.2
20260905143557 89 283 1.0 1.0 0.00 0.00 0.00 31 1012.9
20260905143057 89 90 1.0 2.0 0.00 0.00 0.00 32 1013.2
20260905142557 89 322 2.0 2.0 0.00 0.00 0.00 32 1013.2
20260905142057 90 250 3.0 5.0 0.00 0.00 0.00 31 1013.2
20260905141557 91 295 2.0 2.0 0.00 0.00 0.00 30 1012.9
20260905141057 91 210 1.0 2.0 0.00 0.00 0.00 30 1012.9
20260905140557 91 158 1.0 1.0 0.00 0.00 0.00 30 1012.9
20260905140057 92 209 1.0 2.0 0.00 0.00 0.00 27 1012.9
20260905135557 92 257 1.0 1.0 0.00 0.00 0.00 27 1012.9
20260905135057 92 243 1.0 1.0 0.00 0.00 0.00 26 1012.9
20260905134557 92 232 1.0 1.0 0.00 0.00 0.00 26 1012.9
20260905134059 92 93 3.0 3.0 0.00 0.00 0.00 26 1012.9
20260905133558 92 192 1.0 0.0 0.00 0.00 0.00 25 1012.9
20260905133057 93 216 1.0 2.0 0.00 0.00 0.00 24 1012.9
20260905132558 93 201 3.0 5.0 0.00 0.00 0.00 23 1012.9
20260905132057 93 200 3.0 3.0 0.00 0.00 0.00 24 1012.9
20260905131600 93 241 1.0 1.0 0.00 0.00 0.00 23 1012.9
20260905131057 94 204 2.0 2.0 0.00 0.00 0.00 22 1012.9
20260905130141 94 320 1.0 1.0 0.00 0.00 0.00 21 1012.9
20260905125557 95 251 3.0 5.0 0.00 0.00 0.00 20 1012.9
20260905125057 95 235 3.0 6.0 0.00 0.00 0.00 20 1012.9
20260905124557 95 266 2.0 2.0 0.00 0.00 0.00 19 1012.9
20260905124058 95 75 0.0 0.0 0.00 0.00 0.00 18 1012.9
20260905123557 96 315 0.0 0.0 0.00 0.00 0.00 18 1012.9
20260905123058 95 279 0.0 0.0 0.00 0.00 0.00 18 1012.9